Home   Weather   Cuxhaven   Past weeks

Flag for Germany Past Weather in Cuxhaven, Lower Saxony, Germany — Yesterday and Last 2 Weeks

52 °F

Passing clouds.

Feels Like: 48 °F
Forecast: 52 / 54 °F
Wind: 10 mph from Northwest

Location: Nordholz

Current Time: Oct 28, 2016 at 10:08:26 PM

Latest Report: Oct 28, 2016 at 9:20 PM

Visibility: N/A

Pressure: 30.42 "Hg

Humidity: 77%

Dew Point: 45 °F

Location of CuxhavenLocation

Past Weather in Cuxhaven — Graph


Cuxhaven Temperature Yesterday

Maximum temperature yesterday: 55 °F (at 1:20 PM)
Minimum temperature yesterday: 48 °F (at 12:20 AM)
Average temperature yesterday: 52 °F

High & Low Weather Summary for the Past Weeks

High59 °F (Oct 16, 2:20 PM)100% (Oct 15, 11:20 PM)30.42 "Hg (Oct 15, 11:20 PM)
Low30 °F (Oct 26, 3:20 AM)67% (Oct 14, 2:20 PM)29.77 "Hg (Oct 15, 6:20 AM)
Average47 °F91%30.08 "Hg
* Reported Oct 13 8:20 PM — Oct 28 8:20 PM, Cuxhaven, Weather by CustomWeather, © 2016

Note: Actual official high and low records may vary slightly from our data, if they occured in-between our weather recording intervals... More about our weather records


Cuxhaven Weather History for the Previous 24 Hours

Scroll right to see more
Time TempWeatherWind HumidityBarometerVisibility
8:20 PM
Fri, Oct 28
52 °FPassing clouds.9 mph77%30.42 "HgN/A
7:20 PM52 °FPartly cloudy.9 mph77%30.39 "HgN/A
6:20 PM52 °FPartly cloudy.10 mph77%30.39 "HgN/A
5:20 PM54 °FBroken clouds.9 mph77%30.39 "HgN/A
4:56 PM54 °FPartly sunny.10 mph77%30.36 "HgN/A
4:20 PM54 °FBroken clouds.12 mph82%30.36 "HgN/A
3:20 PM55 °FBroken clouds.13 mph94%30.36 "HgN/A
2:20 PM57 °FBroken clouds.15 mph94%30.33 "Hg5 mi
1:45 PM55 °FDrizzle. Broken clouds.16 mph94%30.33 "Hg3 mi
1:20 PM55 °FPartly sunny.17 mph94%30.33 "Hg5 mi
12:20 PM55 °FMostly cloudy.18 mph94%30.30 "Hg4 mi
11:20 AM55 °FPartly sunny.20 mph94%30.30 "Hg4 mi
10:46 AM54 °FDrizzle. Fog.21 mph100%30.27 "Hg2 mi
10:20 AM54 °FDrizzle. Fog.20 mph94%30.27 "Hg2 mi
10:03 AM54 °FDrizzle. Fog.20 mph94%30.27 "Hg2 mi
9:20 AM54 °FDrizzle. Fog.20 mph94%30.27 "Hg2 mi
8:46 AM54 °FDrizzle. Fog.20 mph94%30.24 "Hg2 mi
8:20 AM54 °FPartly sunny.20 mph94%30.24 "Hg4 mi
7:20 AM54 °FFog.18 mph88%30.24 "Hg3 mi
5:20 AM54 °FPassing clouds.18 mph88%30.27 "Hg5 mi
4:20 AM54 °FPassing clouds.21 mph88%30.27 "Hg4 mi
3:20 AM52 °FFog.16 mph94%30.27 "Hg3 mi
2:20 AM52 °FFog.16 mph94%30.30 "Hg3 mi
1:20 AM52 °FFog.16 mph94%30.30 "Hg3 mi
12:54 AM52 °FDrizzle. Fog.15 mph94%30.30 "Hg3 mi
12:20 AM52 °FPassing clouds.15 mph94%30.33 "Hg4 mi
11:20 PM
Thu, Oct 27
52 °FPassing clouds.15 mph88%30.33 "Hg4 mi
10:20 PM52 °FPassing clouds.15 mph88%30.33 "Hg4 mi
Weather by CustomWeather, © 2016

See weather overviewHow to use our weather pages